Regional Weather Roundup
Issued by NWS

Home | Current Version | Previous Version | Text Only | Print | Product List | Glossary On
Versions: 1 2 3 4 5 6 7 8 9 10 11 12 13 14 15 16 17 18 19 20 21 22 23 24 25 26 27 28 29 30 31 32 33 34 35 36 37 38 39 40 41 42 43 44 45 46 47 48 49 50
000
ASUS44 KMEG 292310
RWRTN
TENNESSEE HOURLY STATE WEATHER ROUNDUP
NATIONAL WEATHER SERVICE MEMPHIS TN
600 PM CDT FRI MAY 29 2015

TNZ002-004-019-021-049-052-054-088>092-300000-
WEST TENNESSEE

CITY           SKY/WX    TMP DP  RH WIND       PRES   REMARKS
MEMPHIS INTL   CLOUDY    78  68  71 S10       30.00F
NWS MEMPHIS      N/A     75 N/A N/A MISG        N/A
JACKSON        MOSUNNY   83  67  58 S8        30.01F
DYERSBURG      PTSUNNY   81  61  50 SE6       30.00F
PARIS          SUNNY     81  66  61 S8        30.03F
LEXINGTON      SUNNY     81  68  65 S8        30.03F
$$

TNZ008-025-027-028-033-062-065-066-300000-
NORTH MIDDLE TENNESSEE

CITY           SKY/WX    TMP DP  RH WIND       PRES   REMARKS
NASHVILLE      MOSUNNY   80  66  62 SW9       30.07S
CLARKSVILLE    SUNNY     81  68  64 S8        30.04S
SMYRNA         MOSUNNY   81  68  64 S8        30.07F
COOKEVILLE     SUNNY     77  68  73 S8        30.11F
CROSSVILLE     CLOUDY    70  64  81 VRB3      30.17F
$$

TNZ061-075-076-078-094-096-097-300000-
SOUTH MIDDLE TENNESSEE

CITY           SKY/WX    TMP DP  RH WIND       PRES   REMARKS
FAYETTEVILLE   SUNNY    N/A N/A N/A MISG      30.10S
TULLAHOMA      MOSUNNY   79  66  65 S8        30.11F
WINCHESTER     SUNNY     79  66  65 SE9       30.11F
MCMINNVILLE    PTSUNNY   79  66  65 VRB3      30.12F
COLUMBIA       PTSUNNY   82  70  65 S5        30.05S
SHELBYVILLE    MOSUNNY   81  70  69 S7        30.09F
$$

TNZ017-018-042-046-047-300000-
NORTHEAST TENNESSEE

CITY           SKY/WX    TMP DP  RH WIND       PRES   REMARKS
TRI CITIES     PTSUNNY   75  65  70 W10       30.18R THUNDER
ELIZABETHTON   CLEAR     73  66  78 CALM      30.18S
$$

TNZ012-013-036-069-073-074-300000-
CENTRAL EAST TENNESSEE

CITY           SKY/WX    TMP DP  RH WIND       PRES   REMARKS
KNOXVILLE      PTSUNNY   76  66  71 SE5       30.13F
OAK RIDGE      MOSUNNY   83  61  47 S6        30.13F
GATLINBURG     CLEAR     73  68  83 E3        30.14S
MORRISTOWN     CLEAR     75  66  73 CALM      30.16F
$$

TNZ083-085-099-300000-
SOUTHEAST TENNESSEE

CITY           SKY/WX    TMP DP  RH WIND       PRES   REMARKS
CHATTANOOGA    PTSUNNY   76  69  79 W3        30.12F
$$

SKY/WX REPORTED AS FAIR MEANS FEW OR NO CLOUDS BELOW
12 THOUSAND FEET.



USA.gov is the U.S. government's official web portal to all federal, state and local government web resources and services.